ARIANE 44LP DEB, 25540

Orbit data source: Space-Track

ARIANE 44LP DEB, 25540 is space debris in HEO originally from a launch on Sun, 11 Dec 1988 UTC launched from the French Guiana (FRGUI). Debris objects in space refer to the collection of defunct objects orbiting the Earth. Examples of debris include non-operational satellites, rocket bodies, and fragments generated from explosions, collisions, or faulty payload assembly.

Loading next visibility...
Identifier
25540, 1988-109G
Orbit
HEO
Last TLE update
1 day ago
Origin
Manufacturer
Unknown
Mission
Spacecraft
Bus & Motor
Unknown
Mass
Unknown
Launch date (UTC)
1988-12-11 (37 years ago)
Launch vehicle
Unknown
Launch site
French Guiana (FRGUI)
Object type
Payload
Rocket body
Debris
Shape & HBR
Unknown
Radar Cross Section
Medium (>0.1 m² and <1 m²)

Expand to show TLE details & history

TLE from 1 day ago
0 ARIANE 44LP DEB
1 25540U 88109G   25183.56469629  .00001320  00000-0  15956-2 0  9992
2 25540   6.6855 139.2866 6580949 248.0682  32.8548  3.12982383264274
Epoch: 2025-07-02T13:33Z
TLE epoch observation values (Epoch: 2025-07-02T13:33:09.759Z)
Latitude
-0°
Longitude
14.94709°
Altitude
8,426.602 km
Speed
5.801 km/s
True Right ascension
09h 16m 19s
True Declination
0° 00' 00"
Sunlit
Object was in daylight at epoch
Visualization orbit readout
Latitude
4.29325°
Longitude
54.16729°
Altitude
19,828.422 km
Speed
3.198 km/s
Apparent Right ascension
12h 08m 12s
Apparent Declination
-3° 56' 23"
Sunlit
Object is in daylight
Visualization observer readout
Local Sidereal Time
01:29:50
Azimuth
32.448° NE
Elevation
-49.571°
Doppler factor
1
Orbital elements
Apogee altitude
26,364.29 km
Perigee altitude
373.469 km
Semi-major axis
19,747.016 km
Eccentricity
0.65809
Inclination
6.6855°
RAAN
139.2866°
Arg. of periapsis
248.0682°
True anomaly
Unknown
Mean anomaly
32.8548°
Eccentric anomaly
Unknown
Mean motion
0.78215 °/min
Orbital period
460.27 mins
BSTAR
0.0015956
Loading maneuver chart data...
Loading SW <> Apogee altitude chart data...
Loading historical data...
Loading historical data...
Loading historical data...
Loading historical data...
Loading historical data...
Loading historical data...
Loading historical data...

ARIANE 44LP DEB Visibility forecast

Observer location: undefined°, undefined°

Span
Click to sort rows by Start time (UTC) header in descending order
Start Az.
Max El. time (UTC)
Max El. Az.
Max El.
End time (UTC)
End Az.
381 mins2025-07-03 19:54:58.579Z184.313° SSW2025-07-04 00:13:58.579Z123.018° SE27.807°2025-07-04 02:15:58.579Z111.055° ESE
|